Weather History for PANT - July, 2013

Change the Weather History Date:

Wednesday, July 10, 2013

  Actual Average Record
Temperature  
Mean Temperature 54 °F 58 °F  
Max Temperature 56 °F 64 °F 83 °F (1989)
Min Temperature 51 °F 52 °F 43 °F (2008)
Degree Days  
Heating Degree Days 11    
Month to date heating degree days 61 77  
Since 1 June heating degree days 281 375  
Since 1 July heating degree days 61 77  
Cooling Degree Days 0    
Month to date cooling degree days 0  
Year to date cooling degree days 6  
Since 1 June cooling degree days 6  
Growing Degree Days 2 (Base 50)    
Moisture  
Dew Point 51 °F    
Average Humidity 0    
Maximum Humidity 0    
Minimum Humidity 0    
Precipitation  
Precipitation 0.93 in 0.14 in 1.60 in (1967)
Month to date precipitation 1.65 1.45  
Year to date precipitation 44.94 44.75  
Snow  
Snow 0.00 in 0.00 in 0.00 in (2014)
Month to date snowfall 0.0 0.0  
Since 1 June snowfall 0.0 0.0  
Since 1 July snowfall 0.0 0.0  
Snow Depth 0.00 in    
Sea Level Pressure  
Sea Level Pressure 29.93 in    
Wind  
Wind Speed 6 mph (SE)    
Max Wind Speed 13 mph    
Max Gust Speed 18 mph    
Visibility 8 miles    
Events Rain    
T = Trace of Precipitation, MM = Missing Value Source: NWS Daily Summary

Daily Weather History Graph

Daily Weather History Graph

Search for Another Location

Airport or City:

Trip Planner

Search our weather history database for the weather conditions in past years. The results will help you decide how hot, cold, wet, or windy it might be!

Date:

Astronomy

Jul. 10, 2013 Rise Set
Actual Time 4:21 AM AKDT 9:21 PM AKDT
Civil Twilight 3:26 AM AKDT 10:15 PM AKDT
Nautical Twilight 1:42 AM AKDT 11:56 PM AKDT
Astronomical Twilight Sun does not rise Sun does not rise
Moon 7:24 AM AKDT (7/10) 9:53 PM AKDT (7/10)
Length of Visible Light 18h 49m
Length of Day
17h 00m
Waxing Crescent, 6% of the Moon is Illuminated
Jul 10
Waxing Crescent
Jul 15
First Quarter
Jul 22
Full
Jul 29
Last Quarter
Aug 6
New

Hourly Weather History & Observations

Time (AKDT) Temp. Dew Point Humidity Pressure Visibility Wind Dir Wind Speed Gust Speed Precip Events Conditions
12:03 AM 51.8 °F 50.0 °F 94% 30.04 in 7.0 mi Calm Calm - 0.01 in Rain Rain
12:19 AM 51.8 °F 51.8 °F 100% 30.04 in 4.0 mi SE 3.5 mph - 0.07 in Rain Heavy Rain
12:39 AM 51.8 °F 51.8 °F 100% 30.03 in 10.0 mi ESE 4.6 mph - 0.10 in Rain Light Rain
12:53 AM 51.1 °F 50.0 °F 96% 30.02 in 10.0 mi ESE 4.6 mph - 0.11 in Rain Light Rain
1:53 AM 52.0 °F 50.0 °F 93% 30.00 in 4.0 mi ESE 5.8 mph - 0.00 in Rain Light Rain
2:00 AM 51.8 °F 50.0 °F 94% 29.99 in 5.0 mi SE 8.1 mph - 0.01 in Rain Light Rain
2:26 AM 51.8 °F 50.0 °F 94% 29.98 in 9.0 mi SE 10.4 mph - 0.02 in Rain Light Rain
2:33 AM 51.8 °F 50.0 °F 94% 29.98 in 10.0 mi SE 8.1 mph - 0.03 in Rain Light Rain
2:41 AM 51.8 °F 50.0 °F 94% 29.98 in 10.0 mi SE 8.1 mph - 0.03 in Rain Light Rain
2:53 AM 52.0 °F 50.0 °F 93% 29.98 in 10.0 mi SE 5.8 mph - 0.03 in Rain Light Rain
3:17 AM 51.8 °F 50.0 °F 94% 29.97 in 10.0 mi SE 8.1 mph - 0.00 in   Overcast
3:35 AM 51.8 °F 50.0 °F 94% 29.96 in 6.0 mi SE 4.6 mph - 0.01 in Rain Light Rain
3:53 AM 52.0 °F 50.0 °F 93% 29.96 in 10.0 mi ESE 6.9 mph - 0.02 in Rain Light Rain
4:17 AM 51.8 °F 50.0 °F 94% 29.95 in 10.0 mi SSE 3.5 mph - 0.00 in   Overcast
4:35 AM 51.8 °F 50.0 °F 94% 29.95 in 10.0 mi SSE 6.9 mph - 0.00 in   Overcast
4:53 AM 51.1 °F 50.0 °F 96% 29.95 in 8.0 mi SSE 5.8 mph - 0.00 in Rain Light Rain
5:06 AM 51.8 °F 50.0 °F 94% 29.94 in 2.5 mi SE 4.6 mph - 0.01 in Rain Rain
5:10 AM 51.8 °F 50.0 °F 94% 29.94 in 1.8 mi SE 5.8 mph - 0.03 in Rain Heavy Rain
5:17 AM 51.8 °F 50.0 °F 94% 29.93 in 3.0 mi SE 6.9 mph - 0.06 in Rain Rain
5:53 AM 52.0 °F 51.1 °F 97% 29.93 in 9.0 mi SSE 5.8 mph - 0.11 in Rain Light Rain
6:02 AM 53.6 °F 51.8 °F 94% 29.92 in 10.0 mi SSE 6.9 mph - 0.01 in Rain Light Rain
6:38 AM 51.8 °F 50.0 °F 94% 29.92 in 9.0 mi SSE 6.9 mph - 0.01 in Rain Light Rain
6:49 AM 51.8 °F 50.0 °F 94% 29.92 in 2.5 mi SE 10.4 mph 18.4 mph 0.03 in Rain Heavy Rain
6:53 AM 52.0 °F 50.0 °F 93% 29.92 in 2.0 mi SE 11.5 mph 18.4 mph 0.07 in Rain Rain
7:04 AM 51.8 °F 50.0 °F 94% 29.91 in 6.0 mi SE 9.2 mph - 0.01 in Rain Light Rain
7:24 AM 51.8 °F 51.8 °F 100% 29.91 in 4.0 mi SE 8.1 mph - 0.01 in Rain Rain
7:38 AM 51.8 °F 51.8 °F 100% 29.91 in 8.0 mi SE 8.1 mph - 0.04 in Rain Light Rain
7:53 AM 53.1 °F 52.0 °F 96% 29.91 in 10.0 mi SE 9.2 mph - 0.04 in Rain Light Rain
8:53 AM 53.1 °F 51.1 °F 93% 29.91 in 10.0 mi SSE 8.1 mph - 0.12 in Rain Light Rain
9:07 AM 53.6 °F 51.8 °F 94% 29.90 in 10.0 mi Variable 6.9 mph - 0.00 in Rain Light Rain
9:53 AM 53.1 °F 51.1 °F 93% 29.91 in 6.0 mi SE 12.7 mph 17.3 mph 0.03 in Rain Rain
10:41 AM 51.8 °F 51.8 °F 100% 29.90 in 7.0 mi ESE 11.5 mph 16.1 mph 0.13 in Rain Light Rain
10:51 AM 51.8 °F 51.8 °F 100% 29.90 in 2.0 mi ESE 9.2 mph - 0.17 in Rain Heavy Rain
10:53 AM 52.0 °F 51.1 °F 97% 29.91 in 2.0 mi ESE 8.1 mph - 0.19 in Rain Rain
11:06 AM 51.8 °F 51.8 °F 100% 29.91 in 2.0 mi Calm Calm - 0.07 in Rain Heavy Rain
11:11 AM 51.8 °F 51.8 °F 100% 29.90 in 1.8 mi Calm Calm - 0.11 in Rain Heavy Rain
11:20 AM 51.8 °F 51.8 °F 100% 29.90 in 2.5 mi ESE 8.1 mph - 0.17 in Rain Light Rain
11:25 AM 51.8 °F 51.8 °F 100% 29.90 in 5.0 mi ESE 9.2 mph - 0.18 in Rain Rain
11:53 AM 53.1 °F 52.0 °F 96% 29.91 in 10.0 mi SE 6.9 mph - 0.20 in   Overcast
11:56 AM 53.6 °F 51.8 °F 94% 29.90 in 10.0 mi ESE 8.1 mph - 0.00 in Rain Light Rain
12:13 PM 53.6 °F 51.8 °F 94% 29.90 in 6.0 mi ESE 8.1 mph - 0.02 in Rain Light Rain
12:29 PM 51.8 °F 51.8 °F 100% 29.91 in 6.0 mi SE 8.1 mph - 0.05 in Rain Light Rain
12:53 PM 53.1 °F 51.1 °F 93% 29.91 in 9.0 mi ESE 9.2 mph - 0.10 in Rain Light Rain
1:01 PM 53.6 °F 51.8 °F 94% 29.91 in 10.0 mi ESE 9.2 mph - 0.00 in Rain Light Rain
1:17 PM 53.6 °F 51.8 °F 94% 29.91 in 10.0 mi ESE 9.2 mph - 0.02 in Rain Light Rain
1:28 PM 53.6 °F 51.8 °F 94% 29.91 in 10.0 mi ESE 8.1 mph - 0.02 in Rain Light Rain
1:40 PM 53.6 °F 51.8 °F 94% 29.91 in 10.0 mi ESE 8.1 mph - 0.02 in Rain Light Rain
1:53 PM 53.1 °F 51.1 °F 93% 29.92 in 10.0 mi ESE 8.1 mph - 0.02 in Rain Light Rain
2:53 PM 55.0 °F 52.0 °F 89% 29.92 in 10.0 mi SE 8.1 mph - 0.00 in   Scattered Clouds
3:02 PM 55.4 °F 51.8 °F 88% 29.92 in 10.0 mi ESE 8.1 mph - N/A   Mostly Cloudy
3:53 PM 55.0 °F 51.1 °F 86% 29.92 in 10.0 mi ESE 5.8 mph - 0.00 in   Overcast
4:53 PM 55.0 °F 48.9 °F 80% 29.92 in 10.0 mi SSE 5.8 mph - 0.00 in Rain Light Rain
5:53 PM 55.9 °F 48.9 °F 77% 29.91 in 10.0 mi Calm Calm - 0.00 in   Overcast
6:53 PM 55.0 °F 51.1 °F 86% 29.91 in 10.0 mi Calm Calm - 0.00 in   Overcast
7:11 PM 55.4 °F 51.8 °F 88% 29.91 in 10.0 mi Calm Calm - N/A   Overcast
7:33 PM 53.6 °F 51.8 °F 94% 29.91 in 10.0 mi Calm Calm - N/A   Overcast
7:53 PM 54.0 °F 51.1 °F 90% 29.91 in 10.0 mi Calm Calm - N/A   Overcast
8:53 PM 53.1 °F 51.1 °F 93% 29.92 in 10.0 mi Calm Calm - N/A   Overcast
9:53 PM 51.1 °F 50.0 °F 96% 29.92 in 10.0 mi Calm Calm - N/A   Mostly Cloudy
10:53 PM 48.9 °F 48.0 °F 97% 29.92 in 10.0 mi Calm Calm - N/A   Scattered Clouds
11:53 PM 50.0 °F 48.9 °F 96% 29.92 in 10.0 mi Calm Calm - N/A   Mostly Cloudy